Regional Weather Roundup
Issued by NWS

Home | Current Version | Previous Version | Text Only | Print | Product List | Glossary Off
Versions: 1 2 3 4 5 6 7 8 9 10 11 12 13 14 15 16 17 18 19 20 21 22 23 24 25 26 27 28 29 30 31 32 33 34 35 36 37 38 39 40 41 42 43 44 45 46 47 48 49 50

000
ASUS43 KMKX 282021
RWRWI

WISCONSIN REGIONAL WEATHER ROUNDUP
NATIONAL WEATHER SERVICE MILWAUKEE/SULLIVAN WI
300 PM CDT WED SEP 28 2016

NOTE: "FAIR" INDICATES FEW OR NO CLOUDS BELOW 12,000 FEET WITH NO
SIGNIFICANT WEATHER AND/OR OBSTRUCTIONS TO VISIBILITY.

WIZ001-002-006>008-014>016-023>028-282100-
NORTHWEST WISCONSIN

CITY           SKY/WX    TMP DP  RH WIND       PRES   REMARKS
SUPERIOR ARPT  CLOUDY    59  51  74 E9        30.26R
ASHLAND        CLOUDY    57  51  80 NE13      30.24R
HAYWARD        CLOUDY    57  48  72 NE10G20   30.23R
SIREN          CLOUDY    58  49  70 N7        30.23R
CUMBERLAND     CLOUDY    55  46  71 N8        30.21R
RICE LAKE      CLOUDY    60  49  66 N12       30.21R
CHETEK         NOT AVBL
LADYSMITH      CLOUDY    60  54  79 N10       30.19R
EAU CLAIRE     CLOUDY    65  49  56 NE14G21   30.15R
MENOMONIE      CLOUDY    65  49  57 N13       30.16R
NEW RICHMOND   CLOUDY    62  48  60 NE14      30.21R
OSCEOLA        CLOUDY    61  51  68 N6        30.24R
$$

WIZ003>005-009-010-017-018-282100-
NORTH CENTRAL WISCONSIN

CITY           SKY/WX    TMP DP  RH WIND       PRES   REMARKS
MANITOWISH WTR NOT AVBL
ARBOR VITAE    PTSUNNY   62  51  67 NE9       30.17R
WOODRUFF       PTSUNNY   62  51  67 NE9       30.17R
RHINELANDER    CLOUDY    60  49  66 NE9       30.16R
EAGLE RIVER    CLOUDY    58  49  72 N8        30.16R
LAND O LAKES   CLOUDY    57  54  89 NE6       30.19R
PHILLIPS       PTSUNNY   59  51  77 N9G17     30.16R
TOMAHAWK       CLOUDY    59  47  65 N7        30.16R
MEDFORD        CLOUDY    59  47  64 NE12      30.14R
MERRILL        CLOUDY    60  49  67 NE7       30.14R
$$

WIZ029-030-035-036-043>047-282100-
CENTRAL WISCONSIN

CITY           SKY/WX    TMP DP  RH WIND       PRES   REMARKS
WAUSAU         CLOUDY    60  46  59 NE9G18    30.11R
MOSINEE        PTSUNNY   63  48  59 N15       30.12R
MARSHFIELD     CLOUDY    62  48  60 NE10      30.12R
STEVENS POINT  CLOUDY    56  51  84 NE7       30.12R
WAUPACA        CLOUDY    62  53  73 N10G20    30.10R
WAUTOMA        LGT RAIN  56  53  90 N7        30.10R
WISC RAPIDS    CLOUDY    61  51  70 NE12G18   30.12R
CAMP DOUGLAS   PTSUNNY   63  52  67 N6        30.10R
$$

WIZ011>013-019>022-031-037>040-048>050-282100-
NORTHEAST WISCONSIN

CITY           SKY/WX    TMP DP  RH WIND       PRES   REMARKS
ANTIGO         PTSUNNY   58  46  64 NE13      30.14R
SHAWANO        CLOUDY    62  52  68 NE12      30.11R
OCONTO         NOT AVBL
STURGEON BAY   MOSUNNY   64  49  57 E10       30.10R
GREEN BAY      MOSUNNY   63  51  65 NE16      30.08R
MANITOWOC      MOSUNNY   62  49  62 MISG      30.07R
APPLETON       PTSUNNY   61  48  63 NE12G20   30.06R
CLINTONVILLE   NOT AVBL
OSHKOSH        SUNNY     62  50  64 NE16      30.06R
$$

WIZ032>034-041-042-053>061-282100-
SOUTHWEST WISCONSIN

CITY           SKY/WX    TMP DP  RH WIND       PRES   REMARKS
LA CROSSE      CLOUDY    61  56  83 N9        30.12R
SPARTA         CLOUDY    61  51  70 NE8       30.11R
VIROQUA        CLOUDY    61  49  64 N10       30.10R
BOSCOBEL       CLOUDY    64  50  60 N9        30.08R
PRAIRIE DU CHI CLOUDY    62  47  59 N8        30.09R
PLATTEVILLE    CLOUDY    62  51  66 N16       30.06R
$$

WIZ056-057-062-063-064-067-068-282100-
SOUTH CENTRAL WISCONSIN

CITY           SKY/WX    TMP DP  RH WIND       PRES   REMARKS
REEDSBURG      NOT AVBL
BARABOO/DELLS  CLOUDY    59  48  68 NE10G17   30.07R
LONE ROCK      CLOUDY    63  50  62 NE9G21    30.07R
MINERAL POINT  CLOUDY    61  50  67 N12G18    30.06R
MADISON        LGT RAIN  56  52  86 NE12      30.04R
MIDDLETON      CLOUDY    61  52  73 N16G26    30.05R
WATERTOWN      PTSUNNY   60  52  75 N12       30.02R
MONROE         CLOUDY    57  54  88 N10       30.03R
JANESVILLE     LGT RAIN  57  55  94 NE8       30.01R
$$

WIZ051-052-058>065-066-070>072-282100-
SOUTHEAST WISCONSIN

CITY           SKY/WX    TMP DP  RH WIND       PRES   REMARKS
MILWAUKEE      CLOUDY    59  49  69 N15       30.01R
WAUKESHA       MOSUNNY   61  48  63 N9        30.01R
MILWAUKEE/TIMM PTSUNNY   61  45  55 NE12      30.01R
RACINE         CLOUDY    57  50  77 N13       30.01R
BURLINGTON     PTSUNNY   61  47  60 N12       29.99R
KENOSHA        CLOUDY    61  48  62 N9        29.98R
FOND DU LAC    SUNNY     63  51  65 N17       30.06R
SHEBOYGAN      MOSUNNY   61  50  67 NE15      30.05R
WEST BEND      MOSUNNY   63  46  55 N12       30.03R
JUNEAU         PTSUNNY   60  50  70 N10       30.05R
$$

LSZ147-162-282100-
LAKE SUPERIOR

STATION/POSITION TIME  TEMP    WIND        PRES    WAVE
                       AIR SEA DIR/SP/G            HT/PER
                 (UTC) (F)     (DEG/KT/KT) (MB)    (FT/S)
W MID LAKE BUOY  1950   55 52   30/ 12/ 14 1023.5R   3/ 6
DEVILS ISLAND    2000   55      20/ 16/ 19 1024.7R
SAXON HARBOR     1900   56      30/ 14/ 17 1022.7
$$

LMZ867-665-643>646-282100-
LAKE MICHIGAN

STATION/POSITION TIME  TEMP    WIND        PRES    WAVE
                       AIR SEA DIR/SP/G            HT/PER
                 (UTC) (F)     (DEG/KT/KT) (MB)    (FT/S)
CHAMBERS ISLAND  1900   60      20/ 20/ 24 1018.3R
S GREEN BAY BUOY 2000   62 62   50/ 14/ 16 1018.6R
N MID LAKE BUOY  1950   61 66   40/ 16/ 19 1018.8R   2/ 4
NORTHPORT PIER   1900   62      40/ 14/ 19 1018.6R
SISTER BAY       1908   70     120/ 12/ 17   N/A
KEWAUNEE LAKESHO 1900   60      40/  8/ 12 1017.2R
SHEBOYGAN LAKESH 2000   58      20/ 17/ 19 1017.3R
PORT WASHINGTON  1900   58      50/  8/ 11 1016.9
ATWATER BUOY     2000   56 55  360/ 14/ 17 1016.0R
MILWAUKEE LAKESH 2010   58     360/ 15/ 18   N/A
S MID LAKE BUOY  1950   62 69   50/ 17/ 23 1013.7R   3/ 4
KENOSHA   LAKESH 2000   56      10/ 16/ 18 1015.2R
$$

TC  - TEMPERATURE IN CELSIUS
VSB - VISIBILITY IN STATUTE MILES
WCI - WIND CHILL INDEX
HX  - HEAT INDEX




USA.gov is the U.S. government's official web portal to all federal, state and local government web resources and services.